Fairbanks, AK

12:55 PM AKDT on August 21, 2019 (GMT -0800)
Fairbanks International

Weather History for PAFA - January, 1975

Change the Weather History Date:

Wednesday, January 15, 1975

  Actual Average Record
Temperature  
Mean Temperature -10 °F -9 °F  
Max Temperature 1 °F 0 °F 50 °F (1981)
Min Temperature -22 °F -16 °F -64 °F (1934)
Degree Days  
Heating Degree Days 76 74  
Month to date heating degree days 1094  
Since 1 July heating degree days 7366  
Cooling Degree Days 0 0  
Month to date cooling degree days 0  
Year to date cooling degree days 0  
Moisture  
Dew Point -20 °F    
Average Humidity 56    
Maximum Humidity 69    
Minimum Humidity 42    
Precipitation  
Precipitation 0.03 in 0.01 in 0.75 in (1906)
Month to date precipitation 0.30  
Year to date precipitation 0.30  
Snow  
Snow 0.00 in 0.30 in 7.50 in (1906)
Month to date snowfall 5.4  
Since 1 July snowfall 43.3  
Snow Depth -    
Sea Level Pressure  
Sea Level Pressure 29.82 in    
Wind  
Wind Speed 7 mph (North)    
Max Wind Speed 10 mph    
Max Gust Speed -    
Visibility 8 miles    
Events Snow    
T = Trace of Precipitation, MM = Missing Value Source: NWS Daily Summary

Daily Weather History Graph

Daily Weather History Graph

Search for Another Location

Airport or City:

Astronomy

Jan. 15, 1975 Rise Set
Actual Time 9:27 AM AHST 2:34 PM AHST
Civil Twilight 8:16 AM AHST 3:45 PM AHST
Nautical Twilight 7:10 AM AHST 4:52 PM AHST
Astronomical Twilight 6:10 AM AHST 5:51 PM AHST
Moon 9:13 AM AHST (1/15) 8:03 PM AHST (1/15)
Length of Visible Light 7h 29m
Length of Day
5h 06m
Waxing Crescent, 11% of the Moon is Illuminated
Jan 15
Waxing Crescent
Jan 20
First Quarter
Jan 27
Full
Feb 2
Last Quarter
Feb 10
New

Hourly Weather History & Observations

Time (AHST) Temp. Windchill Dew Point Humidity Pressure Visibility Wind Dir Wind Speed Gust Speed Precip Events Conditions
12:00 AM -18.9 °F -35.8 °F -34.1 °F 46% 29.98 in 20.0 mi North 6.9 mph - N/A   Mostly Cloudy
1:00 AM -20.0 °F -37.1 °F -35.0 °F 46% 29.98 in 15.0 mi NNE 6.9 mph - N/A   Mostly Cloudy
2:00 AM -18.0 °F -33.0 °F -33.0 °F 47% 29.97 in 15.0 mi North 5.8 mph - N/A   Partly Cloudy
3:00 AM -17.0 °F -29.7 °F -34.1 °F 42% 29.96 in 15.0 mi NE 4.6 mph - N/A   Scattered Clouds
4:00 AM -18.9 °F -37.2 °F -31.0 °F 54% 29.94 in 15.0 mi North 8.1 mph - N/A   Scattered Clouds
5:00 AM -22.0 °F -37.7 °F -36.9 °F 46% 29.94 in 15.0 mi NNE 5.8 mph - N/A   Scattered Clouds
6:00 AM -17.0 °F -33.4 °F -32.1 °F 46% 29.91 in 15.0 mi North 6.9 mph - N/A   Mostly Cloudy
7:00 AM - - - N/A% 29.90 in 15.0 mi North 3.5 mph - N/A   Mostly Cloudy
8:00 AM -16.1 °F -35.0 °F -29.9 °F 50% 29.90 in 15.0 mi North 9.2 mph - N/A   Mostly Cloudy
9:00 AM -11.9 °F -31.0 °F -25.1 °F 52% 29.89 in 20.0 mi North 10.4 mph - N/A   Overcast
10:00 AM -9.0 °F -26.4 °F -22.0 °F 53% 29.88 in 20.0 mi North 9.2 mph - N/A   Unknown
11:00 AM -7.1 °F -23.9 °F -20.9 °F 51% 29.87 in 15.0 mi North 9.2 mph - N/A Snow Light Snow
11:17 AM - - - N/A% 29.81 in 3.0 mi North 8.1 mph - N/A   Unknown
12:00 PM -6.0 °F -20.1 °F -16.1 °F 62% 29.85 in 2.0 mi North 6.9 mph - N/A Snow Light Snow
12:18 PM - - - N/A% 29.79 in 3.0 mi NNE 9.2 mph - N/A   Unknown
1:00 PM -4.0 °F -16.3 °F -14.1 °F 62% 29.83 in 3.0 mi NNE 5.8 mph - N/A Snow Light Snow
1:01 PM - - - N/A% 29.78 in 2.0 mi North 5.8 mph - N/A   Unknown
2:00 PM -2.9 °F -15.0 °F -13.0 °F 62% 29.81 in 2.0 mi North 5.8 mph - 0.01 in Snow Light Snow
2:13 PM - - - N/A% 29.76 in 3.0 mi North 8.1 mph - N/A   Unknown
3:00 PM -2.9 °F -15.0 °F -11.9 °F 65% 29.80 in 3.0 mi North 5.8 mph - N/A Snow Light Snow
4:00 PM -2.0 °F -15.4 °F -11.0 °F 66% 29.78 in 2.0 mi North 6.9 mph - 0.01 in Snow Light Snow
4:40 PM - - - N/A% 29.70 in 3.0 mi North 6.9 mph - N/A   Unknown
5:00 PM - - - N/A% 29.76 in 2.0 mi North 5.8 mph - N/A   Unknown
5:26 PM - - - N/A% 29.69 in 3.0 mi NNE 6.9 mph - N/A   Unknown
6:00 PM -0.0 °F -11.6 °F -9.0 °F 66% 29.73 in 3.0 mi North 5.8 mph - N/A Snow Light Snow
7:00 PM 1.0 °F -11.7 °F -9.9 °F 60% 29.72 in 3.0 mi North 6.9 mph - N/A Snow Light Snow
7:18 PM - - - N/A% 29.67 in 2.0 mi North 5.8 mph - N/A   Unknown
8:00 PM 1.0 °F -10.3 °F -8.0 °F 66% 29.71 in 2.0 mi NNE 5.8 mph - N/A Snow Light Snow
9:00 PM 1.0 °F -8.7 °F -8.0 °F 66% 29.69 in 2.0 mi NNE 4.6 mph - N/A Snow Light Snow
10:00 PM 1.0 °F -8.7 °F -8.0 °F 66% 29.67 in 2.0 mi North 4.6 mph - N/A Snow Light Snow
11:00 PM 1.9 °F -10.6 °F -6.0 °F 69% 29.65 in 2.0 mi NNE 6.9 mph - 0.01 in Snow Light Snow